Theta_e
290 281 278 279 280 282 283 284 284 283 283 281 280 278 278 277 279 282 283 285 287 285 281 282 283 283 283 280 280 281 281 280 280 279 279 279 279 279 278 278 278 278 279 280 281 281 281 281 282 282 282 282 282 282 282 282 282 282 282 283 283 284 285 285 285 287 289 289 290 293 297 302 304 303 304 303 303 302 302 301 301 302 302 302 301 301
288 281 279 281 284 284 284 284 283 283 282 281 279 278 278 278 277 283 283 286 287 283 279 280 281 281 281 279 279 280 279 278 279 278 278 278 278 278 277 277 277 278 279 280 280 280 281 281 281 281 281 282 280 281 281 281 282 282 282 282 282 283 284 284 284 286 287 288 290 290 293 295 302 302 300 301 302 302 301 300 300 301 302 302 300 300
278 279 281 285 285 284 284 283 283 281 281 280 278 277 276 278 279 282 284 284 285 284 280 280 280 282 279 279 279 279 279 279 279 279 278 277 277 277 277 277 277 278 278 278 279 280 280 281 281 281 281 281 281 281 281 281 281 281 281 281 282 282 282 283 284 285 285 287 289 290 291 292 295 302 302 301 299 298 298 299 298 299 299 300 300 300
276 275 283 285 284 283 282 282 282 280 279 278 278 275 274 278 277 275 281 281 283 281 279 280 279 279 277 278 278 279 279 279 280 279 279 279 277 277 277 277 277 277 277 277 278 278 279 280 280 280 280 280 280 280 280 280 280 281 281 281 281 281 281 281 282 284 285 286 288 289 289 290 291 291 293 294 296 297 299 298 298 298 298 298 298 298
280 283 285 283 282 283 281 281 280 277 276 277 278 276 276 278 279 276 278 280 281 281 281 279 277 275 275 275 275 277 279 279 279 278 278 278 278 278 279 279 279 278 277 277 278 278 279 279 279 279 280 280 280 280 280 280 280 281 280 281 280 280 280 281 281 281 283 284 284 285 286 287 287 288 288 288 289 292 293 296 296 297 297 298 297 297
280 284 285 282 282 281 280 279 279 278 276 275 277 279 279 278 277 279 279 277 276 276 278 278 269 271 274 274 274 276 276 276 277 276 276 277 277 277 277 277 278 278 278 278 277 277 278 278 279 279 279 279 279 280 280 280 280 280 280 280 281 280 280 280 280 281 281 281 281 282 281 282 282 282 283 283 284 287 289 290 295 296 296 296 296 297
281 284 283 282 280 279 278 279 280 280 275 273 276 279 278 279 278 277 277 276 269 270 276 279 271 268 274 273 274 275 275 274 275 275 275 276 276 276 276 277 277 277 277 278 278 278 278 278 278 278 278 278 279 279 280 280 280 280 280 279 280 280 280 280 280 280 280 279 280 280 281 282 281 280 282 284 286 286 288 289 291 292 296 296 296 296
284 282 280 280 280 278 277 277 279 280 274 273 278 279 279 278 278 278 277 276 274 277 279 278 276 271 271 273 274 275 274 273 273 274 274 275 275 275 276 276 276 277 277 277 277 277 278 278 278 277 278 278 278 279 279 279 279 279 279 278 279 280 280 279 279 279 279 278 278 279 279 280 279 280 281 283 284 286 286 287 287 288 289 291 295 296
282 281 280 280 277 276 277 280 281 280 277 277 281 280 278 279 278 278 276 276 276 273 271 276 277 269 268 271 275 274 272 272 272 272 273 274 275 275 275 276 276 277 277 277 277 277 277 277 278 278 278 278 278 278 278 278 278 278 278 278 278 278 279 279 279 279 278 279 278 277 278 278 279 279 280 282 283 283 284 284 285 285 286 287 289 291
283 282 282 282 278 277 281 279 279 280 276 279 279 280 280 279 278 278 276 275 274 271 268 274 276 269 268 271 272 274 272 271 272 273 274 274 274 274 275 275 276 276 276 277 277 277 278 277 278 278 278 277 278 278 279 278 278 278 278 277 277 277 278 278 277 278 277 277 278 277 276 276 277 278 278 279 279 281 282 281 282 283 284 285 286 287
282 286 286 283 280 283 279 279 280 281 281 281 281 279 278 277 276 276 275 273 270 264 271 275 276 274 264 269 268 269 271 272 273 274 275 275 275 275 275 275 275 275 275 276 276 277 278 277 277 277 277 277 277 277 277 277 277 277 277 276 276 276 277 277 277 276 276 276 277 276 276 276 275 276 276 276 277 278 279 279 280 281 282 283 284 285
279 281 283 281 284 283 281 280 281 281 281 281 276 274 273 274 273 272 270 272 263 262 271 273 274 274 264 267 271 273 275 276 275 274 274 275 276 276 276 276 275 275 275 275 275 276 277 276 276 276 276 276 276 276 277 277 278 278 277 275 275 275 276 276 276 276 275 275 275 276 276 276 276 275 275 275 275 277 277 278 278 280 281 281 283 284
275 278 281 283 284 282 280 278 278 279 278 277 275 274 269 262 265 262 267 261 263 266 270 273 273 270 267 269 272 274 274 275 276 276 275 275 275 276 277 276 276 276 275 275 275 275 275 276 276 275 275 275 275 276 275 276 276 276 277 276 276 275 275 275 275 275 275 275 274 275 275 275 276 275 275 275 275 276 276 276 277 278 278 280 281 282
271 277 279 281 282 284 281 275 275 275 279 277 275 271 266 264 263 262 265 266 266 271 273 274 273 269 269 270 273 272 274 275 275 276 276 276 275 275 276 276 276 277 277 276 276 276 276 277 277 277 277 276 276 276 276 276 276 275 276 275 275 275 276 276 275 274 274 274 274 274 275 275 275 275 275 275 275 275 275 276 276 277 277 278 279 280
268 267 273 277 275 280 279 279 278 277 277 276 277 274 270 265 263 261 264 262 265 267 272 276 268 261 264 266 273 274 275 276 276 276 276 276 276 276 277 276 277 276 277 277 277 277 277 278 278 278 278 278 278 278 278 277 277 276 275 274 274 274 275 276 276 275 275 273 273 273 274 274 275 275 275 274 276 275 275 275 275 276 277 277 278 279
273 271 276 279 279 279 278 280 281 278 275 274 276 277 271 270 274 267 270 268 267 268 268 268 264 267 267 273 275 275 275 275 276 275 275 275 276 276 276 276 276 276 276 277 277 277 277 277 278 278 278 278 277 277 277 277 277 277 276 275 274 274 274 274 274 275 276 275 274 273 273 274 274 274 274 274 275 275 275 275 275 276 276 277 277 278
270 268 276 279 279 277 278 280 279 279 267 274 275 268 273 277 275 271 270 273 272 269 266 269 267 269 272 273 273 274 274 274 274 274 274 274 275 275 275 275 275 275 275 275 276 276 276 276 277 277 278 278 277 277 277 277 277 276 276 275 274 274 273 273 274 274 274 275 275 274 274 273 272 273 273 274 274 274 274 274 275 275 275 276 276 276
264 271 276 276 276 278 280 278 279 279 279 274 267 273 278 278 277 271 263 267 266 262 264 269 266 266 267 263 272 272 271 273 272 273 274 274 274 274 274 274 274 274 274 275 275 275 275 275 275 276 277 277 277 276 276 276 276 276 276 275 274 273 273 273 273 273 273 273 273 274 274 274 274 272 272 272 272 273 274 274 274 274 274 274 274 275
274 266 273 275 276 278 280 277 276 278 279 275 272 279 271 263 265 271 268 260 260 260 262 266 267 267 266 265 269 268 269 270 271 272 272 273 273 273 274 274 274 273 273 274 274 275 275 275 275 275 275 276 277 277 276 276 276 275 275 274 274 274 274 273 274 273 273 273 273 275 274 273 273 273 272 272 272 272 272 273 273 273 273 273 274 274
276 265 270 276 275 277 276 275 268 272 277 277 277 275 277 273 266 264 265 266 266 260 261 261 265 263 267 267 270 268 270 271 271 271 271 273 273 273 273 274 274 274 274 274 274 275 275 275 275 275 275 276 276 276 276 275 275 274 274 273 273 273 272 272 272 273 272 273 272 273 273 272 272 272 272 272 272 273 271 271 272 272 273 273 273 273
270 274 263 273 276 274 269 273 271 271 269 270 271 269 270 269 274 270 267 263 262 260 260 259 258 263 266 268 268 270 270 271 272 272 272 272 273 273 273 273 273 273 273 274 274 274 274 275 275 275 275 276 276 276 275 275 274 273 273 273 273 272 272 272 272 272 273 273 273 272 272 272 271 272 272 271 272 272 272 271 271 271 272 273 272 273
266 270 264 270 271 270 272 276 274 273 273 271 270 266 269 264 262 261 260 267 262 260 258 258 258 263 265 273 272 272 273 271 272 271 271 272 272 272 272 272 272 272 273 272 273 273 274 274 275 275 275 275 275 274 273 274 273 273 272 272 272 272 272 272 273 273 272 272 273 272 272 272 271 272 272 271 271 272 271 271 271 272 272 271 272 272
274 273 270 265 270 271 274 276 276 276 275 273 272 269 272 267 261 260 259 262 264 263 263 263 258 260 268 269 272 270 268 269 270 270 270 270 270 271 272 272 272 273 272 273 273 273 273 273 274 273 273 273 273 273 273 274 274 274 273 273 273 272 272 273 273 273 273 272 272 272 272 272 272 272 271 272 272 271 271 271 271 271 271 271 271 272
281 264 263 270 272 274 275 276 274 275 275 272 272 273 268 263 263 262 262 265 262 262 258 260 257 257 265 270 270 270 267 268 269 271 270 271 271 272 272 272 272 272 272 273 273 273 273 273 273 273 273 273 273 273 273 274 274 274 274 274 273 273 273 273 273 273 272 272 272 272 272 272 273 272 272 272 272 271 271 270 270 270 270 271 271 271
264 268 270 263 263 267 269 271 271 272 273 270 267 271 270 267 264 261 262 260 258 259 260 258 254 258 263 267 267 269 270 270 271 272 271 270 271 272 272 272 272 272 272 272 272 272 272 272 272 272 273 273 273 274 274 274 274 273 273 273 273 273 273 273 274 274 273 272 272 272 272 272 272 272 272 272 272 271 270 269 268 269 269 270 270 271
269 270 266 259 260 259 258 258 260 263 267 270 272 268 268 263 263 261 257 258 258 261 262 255 256 264 265 265 269 269 269 270 271 271 271 271 271 271 271 271 271 272 271 271 272 271 271 271 272 272 272 273 273 273 273 273 273 274 274 274 274 274 274 273 274 274 273 273 272 273 272 272 272 272 272 272 272 271 269 268 268 268 270 271 271 271
268 271 270 268 263 262 264 267 271 272 270 265 264 265 263 264 261 261 259 259 257 260 260 262 262 262 264 266 267 268 269 268 269 270 271 271 271 271 271 271 271 271 271 271 271 270 271 271 271 272 272 273 272 272 272 273 273 273 273 273 274 275 274 273 274 274 274 274 274 272 272 272 272 272 272 272 271 268 267 268 269 270 270 271 270 270
264 262 267 268 267 268 270 269 271 272 268 269 264 263 264 263 262 260 258 257 261 259 258 263 261 259 262 265 267 268 268 269 270 270 270 270 270 270 270 270 272 271 271 271 270 270 270 270 271 271 272 271 271 272 272 272 273 272 273 273 273 274 274 275 274 274 273 273 272 271 271 271 271 271 270 270 269 269 269 269 270 270 270 270 270 269
266 263 264 265 266 268 270 270 271 270 269 269 266 264 262 264 263 260 257 262 261 257 258 262 263 261 264 265 267 268 269 269 269 269 270 270 270 270 270 269 269 270 270 270 269 270 270 270 271 271 271 271 271 271 271 271 271 272 272 272 273 273 273 274 273 273 273 271 271 271 269 269 270 269 269 270 270 270 271 271 271 271 271 270 269 268
265 263 266 265 266 268 269 270 271 268 268 267 264 265 266 264 263 262 262 263 262 259 263 263 263 263 265 266 268 269 270 270 269 270 270 269 269 269 269 269 269 269 269 269 269 270 270 270 271 271 271 271 270 270 270 270 270 271 271 271 272 272 273 273 273 272 272 271 270 270 270 270 269 269 269 270 270 270 271 271 271 270 269 267 266 264
269 264 271 264 263 264 267 267 266 267 267 266 266 265 265 264 264 264 262 263 264 263 263 263 262 262 267 269 269 270 270 270 269 269 268 269 269 269 268 268 269 268 268 269 269 269 270 270 271 271 270 269 269 269 269 269 270 270 270 270 270 271 271 272 271 271 271 271 271 271 271 271 270 270 270 270 270 270 270 271 271 270 268 266 264 264
266 264 263 262 260 261 266 266 267 268 267 265 264 264 264 263 260 261 257 263 263 260 262 261 260 261 266 269 269 269 269 268 267 268 268 268 269 268 268 268 268 268 268 268 268 269 269 270 270 270 270 269 270 269 269 269 269 269 269 269 269 270 270 270 270 270 270 270 271 271 270 270 270 269 269 269 269 269 269 270 270 268 266 264 264 264
266 263 261 260 260 259 266 266 266 266 263 256 256 261 264 264 265 265 266 266 265 265 261 258 260 265 266 268 266 267 267 267 267 268 268 268 268 268 268 268 268 268 268 268 268 269 269 270 271 271 271 270 270 269 269 269 269 268 268 269 269 270 269 269 268 268 268 268 269 269 269 268 267 267 267 268 268 269 270 269 268 267 267 266 265 263
264 262 260 262 258 259 265 265 264 259 255 257 262 267 266 263 263 262 262 263 265 264 263 265 265 266 265 266 265 265 266 266 267 269 270 268 268 268 269 268 268 268 268 269 269 269 270 270 271 271 271 270 270 270 270 270 269 269 269 269 269 268 268 267 267 267 267 267 267 267 267 267 266 267 268 269 269 270 269 269 268 268 267 266 264 263
263 261 261 259 260 258 261 261 260 253 256 262 268 268 268 267 267 265 264 265 264 265 265 265 265 264 266 267 267 267 268 269 270 269 269 270 270 269 268 268 268 268 268 268 268 269 269 270 270 270 269 269 269 269 269 269 269 269 269 269 268 268 267 266 266 266 267 267 266 266 266 267 268 268 268 268 268 268 268 268 268 267 265 264 264 263
260 262 262 261 261 259 257 256 252 256 264 267 265 268 270 269 266 265 264 266 266 265 265 263 264 266 267 267 268 269 269 269 269 269 269 270 271 270 269 268 268 268 268 268 268 269 269 269 269 269 268 269 269 269 269 269 269 268 268 268 267 267 266 266 266 266 266 265 265 266 267 267 267 266 266 267 267 267 267 267 267 266 265 264 264 264
265 260 260 259 258 254 257 256 257 264 263 263 260 260 263 261 262 261 257 262 264 264 263 263 265 266 267 267 268 268 269 268 266 267 269 270 271 271 270 269 270 269 269 269 269 269 270 269 268 268 269 269 269 268 268 269 268 267 267 266 266 266 265 265 265 264 264 265 266 267 267 266 265 265 266 267 267 266 266 266 266 265 265 265 265 264
269 263 264 258 259 259 256 256 255 253 252 255 259 263 267 268 267 266 260 260 261 259 266 266 265 266 266 267 267 267 267 264 262 264 268 270 271 270 270 270 270 269 269 269 269 268 268 268 268 268 269 268 268 268 268 268 267 266 265 265 265 265 264 264 263 264 264 265 266 266 266 266 266 266 266 266 265 265 265 265 265 265 266 265 264 264
267 267 264 259 259 258 257 254 251 249 254 259 261 265 267 268 267 266 261 258 262 265 266 267 266 266 266 266 266 266 264 260 261 264 268 270 270 270 269 269 269 269 269 268 267 266 267 267 268 268 268 267 266 267 267 266 266 265 264 265 264 264 263 263 263 264 265 266 266 266 266 266 266 265 265 264 264 264 264 265 265 266 266 265 265 265
265 262 258 260 257 257 256 254 251 251 254 258 260 263 267 269 268 264 253 253 261 266 267 267 266 266 266 267 266 265 263 259 261 265 269 269 269 269 268 268 268 268 268 267 267 267 267 268 268 267 266 265 265 266 266 265 265 264 264 263 263 262 262 262 264 265 265 266 266 265 265 265 264 264 264 264 264 265 265 265 265 265 265 265 265 264
257 258 260 258 254 258 260 254 255 258 262 261 262 265 268 269 266 254 252 259 267 267 268 267 267 267 267 266 266 263 265 266 267 269 269 269 268 268 268 269 269 268 267 266 266 268 267 267 267 265 265 265 265 266 265 265 265 263 263 262 262 261 262 263 264 265 266 265 264 264 263 264 263 263 263 264 264 264 265 265 264 264 264 263 264 264
257 258 259 256 256 254 252 254 256 258 262 262 266 268 268 263 252 254 263 266 267 267 268 268 267 267 266 266 266 266 267 268 268 269 268 267 267 267 268 268 268 267 267 267 267 267 267 266 265 264 264 265 265 265 265 265 263 262 262 261 261 262 263 264 265 265 264 263 262 262 263 263 263 263 263 264 264 263 263 264 264 263 263 263 263 262
258 256 255 256 254 256 255 253 253 252 257 265 266 266 264 258 262 266 267 268 269 268 268 268 267 267 267 266 267 267 267 267 267 266 266 266 267 267 267 268 267 266 265 265 265 266 266 265 264 263 263 264 264 265 265 264 262 261 261 261 261 263 264 265 265 264 263 262 262 262 262 262 262 262 262 262 263 262 262 263 263 263 263 262 262 262
261 260 254 255 253 252 252 253 253 262 261 264 266 262 262 266 269 268 267 266 269 269 268 268 268 267 267 267 266 266 266 266 266 266 266 266 266 267 267 267 266 265 265 265 265 266 266 264 263 263 263 264 264 265 264 262 261 261 261 261 263 264 265 264 263 262 262 262 262 262 262 262 262 261 262 262 262 262 262 262 262 263 263 263 262 262
265 261 259 261 258 259 258 261 266 266 268 270 269 270 269 269 269 269 269 269 268 268 269 268 267 268 268 267 267 266 265 266 265 266 264 265 265 266 266 266 265 264 264 264 265 265 264 263 262 262 263 263 264 264 263 262 261 260 260 262 263 264 264 263 262 261 261 261 261 261 261 261 261 261 261 262 262 262 262 262 262 262 263 263 262 263
266 268 266 265 263 266 269 270 271 271 271 271 272 271 270 270 270 271 270 268 269 269 269 268 268 268 268 268 266 266 265 265 264 264 265 265 265 266 266 265 264 264 264 264 265 264 263 263 262 262 262 262 263 263 263 262 261 260 261 262 263 264 263 262 260 260 260 261 261 261 260 260 260 261 261 262 262 262 262 261 261 261 261 262 262 262
267 267 266 262 264 263 261 266 268 270 271 270 270 271 271 271 270 271 269 269 269 269 268 268 268 268 268 268 267 266 266 265 264 265 265 265 265 265 264 263 263 263 263 263 264 264 262 261 261 261 261 261 262 262 262 262 262 261 262 262 263 264 262 261 260 260 260 259 259 260 260 259 259 260 261 261 261 261 261 262 261 261 261 261 261 261
264 268 265 267 264 263 265 269 269 270 270 271 270 269 269 270 270 270 269 269 269 269 268 268 268 267 268 268 268 266 266 266 265 264 264 264 265 264 263 263 262 263 263 263 263 262 261 261 260 260 260 260 261 262 262 262 261 262 262 263 264 262 261 260 260 259 258 258 258 259 259 259 260 260 260 260 260 260 260 261 261 260 260 260 261 260
265 267 261 263 263 266 269 270 270 269 268 269 270 271 271 270 269 268 269 268 268 268 268 268 268 268 268 268 268 267 265 265 265 265 264 264 264 263 262 262 262 262 263 262 261 261 260 260 260 260 260 260 261 261 261 261 261 262 262 263 263 261 260 259 259 259 258 258 258 258 259 259 259 259 259 259 260 260 260 260 260 261 261 262 262 262
266 264 264 263 263 263 263 267 266 262 264 267 269 269 269 270 268 268 268 268 268 267 267 267 268 269 268 268 267 266 264 264 264 264 264 264 264 263 263 263 262 262 262 262 261 260 260 260 260 260 260 260 261 261 261 261 261 262 262 262 262 261 259 258 258 258 257 257 257 257 258 258 259 259 259 259 259 259 260 262 263 263 262 261 264 265
268 268 266 263 259 263 269 269 268 268 268 269 270 270 270 269 268 268 267 267 267 268 268 267 267 267 266 266 266 265 264 263 263 265 264 263 262 263 263 262 262 262 262 261 260 259 259 259 260 259 259 260 261 260 260 260 261 261 262 261 260 259 258 257 257 257 257 257 257 257 258 258 258 259 259 259 259 259 259 259 261 264 264 264 264 264
Wind_Speed
2 3 4 5 6 5 4 5 5 5 3 5 2 4 8 7 10 6 7 7 4 2 3 4 6 6 6 5 4 5 7 9 9 9 8 8 9 10 10 10 10 10 10 8 9 9 10 12 11 11 11 12 13 15 15 16 17 16 16 16 18 15 15 15 14 14 13 14 14 13 12 10 4 8 8 6 5 6 6 3 3 5 6 9 8 7
2 4 5 4 3 3 5 5 5 7 6 5 6 5 9 4 9 9 8 4 5 3 5 3 6 9 5 4 4 4 8 7 8 9 9 10 10 10 10 10 9 6 5 8 9 10 10 10 12 11 11 14 16 15 15 16 14 14 16 17 15 14 14 14 14 11 11 10 8 8 8 11 8 4 2 5 6 7 5 5 5 6 9 9 8 7
5 0 2 2 4 4 5 5 4 5 5 5 3 6 6 8 5 10 4 6 4 6 12 6 8 12 1 5 5 6 7 6 7 9 9 10 10 8 7 7 7 8 9 8 9 9 10 10 11 10 10 11 11 12 14 13 14 16 14 14 14 15 14 14 13 12 12 10 11 10 10 10 10 9 6 5 4 2 1 4 4 3 3 3 5 7
5 3 2 3 5 7 5 6 8 7 5 6 9 7 6 7 7 13 12 6 10 4 9 13 14 7 6 5 6 4 6 9 9 11 11 9 9 8 7 6 8 8 9 11 10 11 10 10 10 10 11 11 10 12 13 13 15 13 13 13 14 13 14 14 15 12 11 11 9 9 9 11 9 8 12 12 13 13 9 3 3 3 3 5 6 6
3 8 1 5 6 6 5 7 8 8 9 5 5 4 5 8 10 4 11 12 12 9 9 13 10 4 5 6 4 6 9 11 8 11 10 9 8 6 6 8 8 9 9 9 11 11 11 11 11 11 10 10 11 12 12 13 12 10 13 13 12 12 12 13 15 15 12 12 14 13 14 15 16 16 15 14 13 12 12 11 6 5 4 3 3 2
5 2 0 7 7 8 7 8 7 8 11 8 5 4 7 6 9 12 11 9 10 15 2 3 5 4 5 3 8 6 6 10 6 11 10 10 10 9 11 10 9 9 7 8 9 9 10 10 10 11 11 12 11 11 11 11 11 11 12 12 12 11 11 13 14 15 13 13 12 14 15 16 14 13 14 14 14 13 12 11 12 4 1 2 3 2
2 3 6 4 5 6 7 4 2 6 8 6 9 3 4 7 6 10 14 8 7 8 8 4 3 9 3 5 8 6 9 10 7 10 10 10 10 10 9 10 10 9 9 8 6 8 10 10 9 10 10 10 11 10 9 9 11 12 12 12 11 10 11 12 13 14 12 13 14 14 11 8 8 9 8 8 8 9 10 11 11 13 8 3 3 4
4 7 10 8 7 6 6 9 6 4 6 6 7 0 6 6 10 12 11 8 10 6 13 11 5 10 9 1 7 7 11 10 10 10 10 10 11 10 10 9 9 9 9 8 8 6 6 8 7 8 8 8 8 7 7 8 9 12 11 13 12 9 10 11 12 13 13 11 12 13 12 10 10 10 10 11 10 9 10 10 13 11 11 13 10 7
1 5 6 7 4 5 4 2 8 2 3 9 14 8 8 10 11 12 10 11 10 5 11 13 4 1 2 5 5 5 11 9 10 9 9 10 10 10 10 10 9 9 8 8 8 6 7 7 7 5 7 5 6 6 7 7 7 7 8 9 11 10 9 10 12 12 12 11 11 10 10 11 9 10 9 8 8 9 10 12 12 12 12 11 12 13
3 3 1 1 2 3 3 4 6 7 5 8 5 5 7 7 6 10 10 11 7 1 12 13 5 4 1 5 6 3 8 8 9 9 9 8 7 7 8 6 7 7 6 7 6 6 5 5 5 4 4 5 5 4 4 4 4 6 7 8 10 10 8 9 10 11 11 11 10 10 11 11 11 11 10 9 9 10 10 11 12 11 11 11 11 11
4 4 4 4 0 0 2 5 4 9 9 8 7 7 9 11 10 7 8 2 1 4 13 13 10 4 2 7 7 9 7 7 7 8 8 8 7 7 5 5 5 4 5 7 6 7 6 5 5 5 6 5 5 5 5 5 4 4 6 6 9 9 7 7 8 9 10 10 9 10 11 11 12 11 10 12 13 12 12 12 12 11 10 10 10 10
8 3 1 1 1 2 2 7 5 5 5 3 3 6 8 10 4 3 4 2 1 6 6 5 3 4 4 4 9 10 10 9 8 9 9 10 9 7 7 6 5 4 4 4 5 6 7 6 6 4 5 5 6 6 7 7 9 9 7 4 4 5 6 6 6 7 8 8 8 8 10 11 10 11 10 11 11 11 13 12 11 9 9 10 9 10
5 3 1 4 2 3 7 7 8 5 3 6 7 6 9 6 6 8 4 7 4 10 6 7 11 7 8 4 7 12 12 12 12 10 10 10 11 10 8 10 7 6 5 5 5 6 6 8 7 5 4 5 5 5 4 6 5 4 7 10 12 11 6 4 4 5 5 6 7 7 9 8 8 9 10 10 11 11 10 10 12 13 12 11 11 11
6 3 4 5 3 3 7 12 14 14 15 17 13 8 11 13 9 11 12 7 9 6 5 15 6 5 10 8 10 11 12 10 11 10 9 10 11 11 10 10 10 11 10 9 8 8 7 9 9 6 5 4 4 4 4 4 4 3 4 4 5 9 9 8 5 3 4 4 5 4 6 7 7 8 8 8 9 9 9 10 10 9 9 10 11 11
11 6 4 7 8 9 6 10 11 10 11 12 4 8 9 6 7 14 9 14 14 15 15 9 5 3 3 5 5 9 8 8 8 8 8 8 8 8 6 6 6 6 6 5 5 6 6 7 6 6 5 4 3 3 3 3 3 3 3 2 3 3 4 8 9 7 6 3 3 3 3 4 5 6 7 7 7 8 9 9 10 10 9 9 10 10
1 4 9 5 4 5 12 11 9 9 7 4 4 7 8 8 8 9 12 12 12 13 10 7 2 3 6 7 3 5 6 8 6 7 6 5 5 3 3 2 3 3 3 3 4 5 6 7 5 9 5 5 4 3 3 2 3 2 3 2 2 3 3 3 3 5 7 5 4 3 2 3 3 2 4 5 6 7 7 8 8 8 9 10 10 11
3 3 2 8 6 5 13 11 7 6 5 9 7 6 7 8 7 8 8 12 14 10 7 6 3 2 4 4 4 4 5 4 3 4 4 5 5 5 4 3 3 3 3 3 3 3 4 4 5 7 7 6 5 4 3 4 3 2 3 3 3 4 3 3 4 3 3 5 6 5 4 4 2 2 4 3 4 6 5 6 6 7 8 9 10 11
2 14 5 9 17 9 11 5 6 9 4 3 5 7 8 2 5 3 7 8 7 10 6 8 10 2 5 3 5 2 5 3 3 2 4 5 3 6 5 3 3 3 3 4 3 4 3 3 4 5 6 6 7 6 5 5 4 3 3 4 4 4 4 4 4 4 3 3 3 4 5 4 5 2 2 2 3 3 3 4 4 6 8 9 9 9
2 7 3 4 8 13 9 4 2 5 6 9 6 6 9 6 8 6 5 11 11 8 9 7 9 6 1 3 5 6 5 5 3 3 3 6 5 6 5 4 5 5 5 6 5 4 5 4 5 5 6 7 8 8 8 5 4 4 4 4 4 5 5 5 4 4 3 4 3 4 4 4 4 3 3 2 2 2 3 3 3 5 6 8 10 10
3 2 8 2 10 11 6 5 10 10 6 4 7 9 1 1 1 8 4 5 6 11 9 11 8 8 1 3 3 3 3 5 6 3 6 7 6 7 5 5 5 6 5 7 6 6 6 6 6 7 7 8 8 9 8 5 4 5 5 3 4 4 4 4 4 5 4 5 4 5 4 5 4 4 4 3 3 5 4 3 3 4 6 7 7 9
2 1 3 9 6 4 7 7 7 7 11 13 11 6 5 1 3 2 2 1 3 8 7 10 11 2 1 1 2 2 1 3 4 7 5 6 8 8 8 7 6 6 6 7 6 6 6 8 8 9 9 8 7 7 6 5 4 5 4 5 5 4 4 3 4 4 5 5 5 5 6 6 4 5 4 3 3 3 4 4 3 3 4 5 6 6
2 2 3 10 10 9 8 6 4 7 12 10 8 3 0 4 7 7 8 1 1 4 7 8 13 4 1 3 3 3 5 4 5 7 8 7 8 7 7 5 5 6 5 5 6 5 9 9 10 10 7 6 7 6 6 6 4 4 4 4 4 4 4 5 5 4 5 4 5 5 6 5 5 5 4 4 4 4 4 3 4 5 5 5 5 4
2 2 1 7 7 9 11 13 1 12 12 9 6 2 1 0 2 2 8 6 4 4 5 5 5 2 3 2 3 4 4 5 7 6 8 7 6 6 6 6 7 6 8 8 9 10 10 10 10 8 7 6 6 5 5 5 6 6 5 6 5 5 5 5 5 5 5 5 5 5 5 5 5 5 5 5 5 5 5 4 3 3 5 8 6 4
4 2 4 8 7 6 6 6 3 9 7 6 2 3 3 2 1 1 4 4 3 3 2 3 4 6 3 4 5 6 6 5 6 7 8 8 6 8 9 10 9 10 9 10 11 12 11 7 6 8 7 7 6 5 6 6 6 6 6 7 7 6 7 6 6 6 5 5 5 5 5 5 6 5 6 6 7 6 5 4 4 3 3 5 5 7
3 3 3 6 7 10 9 2 3 5 7 7 4 2 2 2 3 2 1 1 4 2 3 3 11 9 2 2 4 6 9 11 12 9 4 7 8 9 9 9 10 11 11 12 13 12 8 8 9 10 9 10 9 8 9 9 9 8 8 7 7 7 6 6 6 7 6 5 6 6 6 6 6 6 7 8 7 7 6 5 4 3 4 5 6 6
2 3 3 3 7 11 13 13 13 14 12 9 1 5 4 6 4 6 3 3 2 2 8 2 8 13 6 3 8 10 11 12 9 5 5 5 7 9 9 10 10 11 12 13 14 8 8 9 10 11 11 10 10 9 8 9 10 9 10 10 10 10 9 7 6 6 6 6 7 8 8 8 7 6 7 8 8 7 6 4 4 5 5 6 7 6
0 0 2 3 0 6 8 10 12 12 10 7 8 0 2 1 1 1 0 1 4 4 8 10 11 12 15 15 14 13 11 12 13 11 10 9 9 10 10 11 11 11 13 15 12 7 10 10 11 11 11 10 7 7 8 8 9 9 10 11 11 11 9 8 7 7 8 9 9 7 8 8 6 6 6 7 6 4 4 6 7 7 7 7 7 6
2 2 1 2 3 8 9 13 15 13 11 10 9 6 2 1 1 0 2 5 2 4 11 7 3 9 15 14 15 16 13 11 12 11 11 11 12 12 12 13 15 15 15 13 6 10 11 12 12 12 11 7 5 6 7 8 9 10 10 11 11 11 11 10 10 10 10 10 9 8 8 5 4 5 6 6 6 6 7 8 8 8 8 7 7 7
0 0 4 6 13 8 10 12 13 8 6 11 6 4 2 2 1 0 6 6 0 4 12 12 11 13 15 15 16 13 10 12 12 12 12 12 13 13 14 14 15 16 16 9 9 11 12 13 13 14 11 6 5 7 8 9 9 10 11 11 11 11 11 11 11 12 11 10 8 8 4 4 5 5 7 8 8 10 11 12 11 11 10 8 7 4
1 0 3 3 11 11 11 10 8 7 11 9 7 5 2 2 3 3 5 5 3 6 10 12 14 18 14 14 14 10 10 10 11 11 13 14 14 14 14 15 15 15 10 10 13 13 14 14 15 14 11 6 7 8 9 10 11 11 10 10 11 11 11 11 12 12 11 10 8 7 8 8 8 9 9 10 11 12 13 13 13 12 10 7 5 4
6 4 9 5 5 9 10 7 4 8 10 12 7 2 2 3 3 5 2 4 6 7 6 10 16 19 11 7 9 9 8 9 12 15 15 13 14 15 16 16 16 10 11 12 14 15 16 18 17 15 11 6 8 9 10 10 10 8 8 10 11 12 12 11 12 12 11 11 11 11 11 11 11 10 11 11 12 13 14 16 14 12 8 5 4 4
5 3 1 1 5 8 4 5 12 11 11 11 11 5 3 4 6 2 3 4 4 9 10 13 13 13 12 8 9 9 11 13 14 14 13 13 14 16 16 16 11 10 12 13 16 18 19 17 17 15 10 9 10 11 10 11 10 9 10 10 11 11 10 10 10 12 12 13 13 13 13 12 12 12 13 13 14 16 16 16 13 7 3 3 3 4
0 1 4 4 7 6 8 6 11 15 9 3 2 5 4 3 3 4 5 5 5 7 12 11 14 10 8 9 13 14 14 15 13 11 13 14 17 17 17 11 8 12 13 15 17 16 16 17 16 14 11 11 12 12 12 11 11 10 10 12 12 11 9 9 9 10 12 13 13 12 11 12 13 14 14 13 14 15 16 11 2 2 3 4 4 3
1 1 1 0 1 7 11 10 5 4 7 7 3 2 1 2 4 4 8 10 9 6 10 10 13 7 7 9 11 15 15 14 13 12 10 12 15 17 13 8 9 12 14 15 15 15 16 17 15 11 12 13 13 12 14 12 10 10 11 12 11 9 9 9 10 10 12 12 10 10 12 14 14 12 11 11 11 10 8 5 7 6 5 4 4 4
1 2 2 1 1 6 7 9 10 5 5 3 3 2 2 1 5 10 12 11 7 8 9 13 12 8 10 11 12 14 16 16 13 14 15 14 15 9 7 10 11 12 13 15 16 17 17 15 13 14 14 13 14 14 12 10 9 12 11 9 10 9 10 10 11 11 10 10 12 13 14 13 10 11 12 12 11 11 11 10 10 9 6 5 5 5
2 0 0 0 1 2 3 4 5 9 6 5 4 1 3 4 1 11 19 14 9 9 9 7 6 10 11 13 16 17 16 15 13 11 11 13 10 5 11 11 13 14 15 14 16 15 13 14 16 16 16 16 15 12 11 12 11 10 10 9 10 10 10 11 11 10 10 12 14 14 12 10 12 12 11 12 11 10 10 10 9 8 6 5 6 5
6 2 4 2 1 1 5 2 9 10 13 1 1 2 1 1 4 4 11 18 6 6 1 5 9 10 14 15 14 14 13 13 14 11 4 10 7 9 12 13 13 15 15 17 14 13 13 15 16 18 18 15 12 12 12 11 11 11 12 12 11 11 11 11 11 11 12 13 13 11 12 12 12 13 13 10 9 9 10 10 9 8 6 9 9 8
3 5 2 4 2 3 3 7 5 5 5 6 5 3 2 2 4 6 3 18 6 4 1 7 15 17 17 15 13 12 12 14 15 12 9 7 7 13 14 14 14 14 15 14 11 12 14 15 17 17 11 12 13 12 12 12 13 13 14 14 13 11 11 11 11 11 12 11 10 12 12 11 12 11 11 10 11 11 11 10 10 9 8 9 9 9
4 4 6 5 4 4 1 2 3 3 9 8 6 6 5 3 3 4 8 14 3 7 2 7 13 15 15 14 14 10 12 14 15 11 10 10 14 15 17 16 15 14 12 10 10 14 16 17 15 11 12 13 14 14 13 14 15 15 15 12 10 10 11 12 11 11 11 11 11 9 9 10 11 12 12 12 12 11 11 10 9 9 8 8 8 9
1 0 2 0 2 3 3 1 5 4 5 4 5 5 6 5 3 6 7 8 6 4 7 11 14 14 14 12 10 10 8 12 15 15 13 15 17 17 17 18 17 15 11 10 11 12 15 15 11 12 12 13 14 15 15 15 15 13 10 10 10 11 12 11 11 11 11 10 8 9 10 10 11 11 11 13 12 11 10 8 8 9 9 9 8 8
1 2 1 5 3 6 5 5 3 6 5 3 5 7 5 5 3 2 7 13 10 12 11 12 14 13 10 10 8 10 9 9 14 16 16 15 16 18 17 15 15 11 11 13 14 16 15 12 9 11 13 14 16 15 14 14 10 9 10 11 11 11 11 11 10 11 8 8 9 10 10 10 10 12 12 11 11 11 10 8 9 9 9 8 7 7
2 0 2 2 2 3 2 3 8 8 9 7 3 3 3 3 3 11 9 3 9 14 14 12 13 9 8 8 9 10 12 13 14 14 14 14 15 18 17 17 13 10 10 11 15 17 16 11 9 12 14 15 15 15 14 9 9 11 12 12 12 12 11 11 10 7 8 9 9 10 10 11 11 11 10 10 10 11 10 9 9 8 9 8 8 9
5 1 5 2 2 1 1 2 5 6 3 4 2 4 4 0 9 6 10 10 8 13 14 12 7 8 6 12 12 12 13 14 13 13 13 14 16 17 18 15 11 11 13 15 17 17 13 10 12 13 14 14 13 13 10 8 11 12 12 12 13 12 12 10 7 8 8 9 10 10 10 10 12 12 10 11 11 11 11 9 8 9 8 9 9 10
4 1 3 3 5 2 2 2 6 9 3 4 2 5 4 9 7 5 5 13 12 11 11 9 8 8 9 12 14 13 14 14 14 12 14 16 16 17 15 12 11 11 13 13 14 14 9 11 12 14 15 13 12 11 8 9 11 12 13 14 12 12 11 7 7 7 9 10 10 11 10 10 11 11 11 11 11 10 10 10 9 8 7 8 8 8
7 6 8 5 4 5 8 10 10 4 4 4 2 11 8 7 4 5 9 12 13 11 7 10 11 10 10 12 14 13 14 13 13 12 14 16 17 17 15 12 11 12 13 15 16 12 8 11 15 15 15 13 14 11 8 8 11 13 14 13 12 13 8 7 7 8 10 11 11 11 10 10 10 11 11 10 9 9 9 10 9 8 7 7 7 8
3 6 1 0 7 7 12 16 16 15 13 14 8 6 8 8 5 7 10 11 9 9 7 8 10 11 11 11 13 13 12 12 13 13 15 16 17 17 13 11 11 10 12 14 14 10 10 12 14 14 14 13 13 10 8 10 10 13 13 12 13 12 6 7 8 9 11 11 12 12 11 12 12 11 10 9 8 8 8 9 9 8 8 7 6 6
2 3 4 4 2 3 10 1 8 14 12 8 9 8 6 6 6 7 8 8 9 9 9 7 9 10 11 13 13 13 12 10 13 14 15 16 17 14 12 11 12 12 14 15 13 10 11 12 13 13 12 15 13 10 10 11 10 11 11 12 13 9 6 7 9 10 11 12 12 12 11 11 9 10 9 8 8 7 7 7 7 8 8 7 7 6
3 3 1 9 5 6 15 11 8 9 9 10 9 10 10 9 7 5 6 7 9 8 6 6 6 10 10 13 12 10 12 11 13 16 16 16 15 11 10 11 13 15 14 12 10 9 11 13 14 13 13 13 12 10 10 10 11 12 12 11 10 6 7 8 9 10 11 12 11 10 10 10 14 13 9 8 8 8 8 7 7 7 8 7 7 7
4 5 6 4 6 10 12 16 16 11 10 14 14 11 8 6 6 6 7 8 9 10 8 6 4 9 11 11 10 11 13 15 14 16 17 16 13 9 10 12 14 15 15 13 9 8 11 13 14 13 13 13 12 11 9 10 12 12 11 10 7 7 7 9 10 10 11 10 10 10 11 10 9 9 9 9 8 7 7 8 7 7 8 7 6 7
7 6 3 1 7 10 10 14 3 8 13 6 6 7 6 6 4 7 9 9 7 8 9 12 13 8 5 7 9 11 13 15 16 16 16 12 9 10 13 15 15 14 14 10 8 9 12 13 14 14 13 13 12 9 9 11 13 11 8 7 6 7 8 9 9 9 10 9 10 10 10 9 8 8 8 8 9 9 9 9 13 10 9 8 12 16
9 10 6 7 6 11 12 10 7 9 11 12 9 6 5 4 4 8 9 7 7 8 9 11 13 12 8 6 6 10 14 15 17 16 13 8 10 12 14 15 14 14 13 11 11 12 14 14 13 12 14 14 11 8 10 12 13 9 7 6 5 6 7 8 9 9 9 10 9 10 11 9 8 8 8 9 9 8 9 10 8 12 15 14 14 14
Wind_Direction
120 35 344 292 275 261 292 318 300 289 295 304 338 341 295 304 293 286 271 289 329 336 273 244 263 262 256 166 129 104 86 82 85 83 75 67 62 57 53 52 47 45 41 26 26 20 18 19 14 13 14 13 14 20 16 20 21 18 19 16 19 14 13 14 9 10 6 2 352 352 351 324 256 184 184 199 191 179 194 193 198 189 173 180 188 194
65 24 299 233 233 281 304 303 340 354 0 341 315 321 306 316 289 292 294 323 339 17 275 275 270 263 247 144 120 93 83 76 87 83 73 69 66 62 57 52 48 42 32 28 23 18 19 16 15 16 16 15 16 12 14 20 16 19 19 20 17 14 15 18 14 7 9 3 355 335 327 333 319 329 269 209 204 202 186 171 186 206 202 192 178 182
9 34 248 316 335 350 342 357 13 31 344 347 354 319 338 304 254 286 311 335 330 346 284 276 273 277 125 112 77 73 77 70 66 79 81 80 71 64 59 56 49 39 30 26 23 19 17 12 13 18 18 17 19 13 17 12 15 19 17 19 17 16 15 15 11 12 8 358 355 355 346 358 341 7 5 17 14 31 100 178 193 199 237 233 195 186
15 292 291 339 20 19 345 3 11 24 34 15 349 353 320 284 3 320 305 328 309 303 291 290 277 281 102 77 77 56 76 83 80 81 81 80 81 73 65 61 46 41 31 24 18 14 12 11 13 16 18 16 14 18 15 13 17 14 15 15 16 17 16 11 10 9 7 3 354 1 6 7 26 7 8 18 19 10 1 338 314 255 225 194 192 193
210 267 316 43 21 31 359 5 32 24 359 339 325 287 297 317 303 240 296 319 303 274 227 266 284 279 163 152 93 78 86 87 78 78 71 62 61 59 57 46 43 40 35 26 21 16 11 12 12 15 13 14 19 18 15 16 13 14 12 10 13 15 15 14 8 6 3 3 12 7 11 19 13 12 10 10 10 4 354 353 353 338 330 321 322 309
329 275 167 32 10 13 35 25 12 23 348 332 279 227 273 274 295 302 304 341 332 314 290 175 335 260 225 125 117 126 100 83 75 76 66 60 52 48 42 37 29 30 31 34 28 19 13 11 10 12 16 18 17 18 16 13 10 13 13 9 11 13 13 12 11 8 8 15 16 19 21 15 11 9 10 5 355 351 353 340 331 307 45 335 302 284
231 326 65 44 27 17 43 62 326 43 343 343 305 197 237 272 288 296 301 342 305 294 284 66 304 287 96 176 147 134 103 92 70 71 69 60 54 45 44 33 30 23 18 22 23 21 19 11 11 14 16 15 18 14 12 11 14 13 13 10 8 13 12 10 10 9 12 15 19 25 26 28 21 4 358 350 349 351 344 342 350 354 344 309 238 236
356 350 29 19 25 31 33 18 327 24 350 305 263 359 297 303 294 290 290 271 252 264 289 283 202 268 283 325 125 114 98 89 77 72 68 62 53 48 37 31 24 22 19 17 10 14 20 12 9 8 5 13 9 8 8 14 17 14 12 12 7 8 14 15 10 12 13 16 17 17 20 20 17 10 351 349 353 357 351 351 359 354 358 358 343 308
50 344 42 3 44 39 50 265 298 360 325 276 292 296 296 290 289 285 279 276 261 297 285 285 169 276 246 13 70 83 90 81 75 72 67 62 59 49 42 32 21 12 12 8 7 4 4 4 1 355 4 352 4 6 10 10 11 11 11 13 11 8 13 13 15 15 13 16 15 15 16 14 14 4 358 352 352 354 355 357 357 358 355 354 353 353
342 105 191 106 74 7 269 286 297 311 350 281 272 301 288 296 284 272 275 271 285 180 265 275 254 229 9 42 20 41 88 83 78 70 67 66 53 51 42 34 24 21 1 358 357 350 350 347 348 347 348 357 6 353 8 2 2 9 9 11 13 11 10 11 14 16 13 15 13 16 15 15 8 360 359 2 2 358 357 358 356 355 355 350 351 350
276 268 173 80 86 239 258 283 270 300 263 289 330 313 315 307 287 282 248 225 343 218 260 270 274 225 295 49 12 12 338 88 87 78 71 62 52 39 43 13 20 11 1 359 349 341 339 329 338 350 360 354 359 2 10 5 10 8 12 7 11 7 6 8 15 16 14 12 13 18 13 11 7 2 5 360 0 358 2 360 354 353 348 347 348 346
352 348 37 325 56 337 198 316 292 268 284 351 346 339 331 305 312 314 300 79 201 265 274 274 278 290 250 31 39 29 31 48 67 72 66 56 44 37 26 13 350 351 355 346 355 345 341 339 338 349 352 357 353 3 5 4 1 358 1 14 17 3 8 4 10 19 14 15 14 16 13 9 7 3 5 1 3 359 356 352 350 344 343 349 347 347
351 11 273 336 243 354 340 330 312 315 330 347 322 343 353 290 332 316 337 337 251 293 272 339 10 12 73 67 35 46 46 43 44 49 48 43 34 26 16 13 349 338 345 348 341 349 348 354 347 337 337 350 355 356 353 352 356 352 354 353 354 355 12 7 14 19 15 16 12 17 13 9 6 3 8 357 358 353 354 353 348 348 352 349 347 348
282 258 22 2 13 26 5 355 339 343 347 341 347 353 360 336 343 314 314 297 285 269 314 311 346 312 102 77 39 52 50 48 49 48 44 39 34 24 17 11 1 358 354 350 345 344 350 346 355 331 326 338 339 342 340 336 348 326 347 344 358 345 347 350 3 22 35 20 12 12 17 10 7 3 3 358 356 352 352 349 346 348 346 343 341 339
2 348 339 33 355 335 25 8 340 309 332 323 348 4 336 338 330 315 313 310 306 306 308 314 333 37 347 61 65 55 48 49 42 41 35 29 28 20 4 7 356 0 357 353 345 337 323 325 331 330 303 304 304 307 315 317 318 317 327 319 335 331 326 346 342 345 356 18 34 18 17 18 10 360 358 355 354 351 352 347 342 342 343 344 342 343
284 226 272 63 261 330 3 344 337 339 336 331 359 16 21 336 320 292 324 321 331 323 325 25 82 223 116 163 101 88 57 42 41 30 33 29 355 355 324 326 339 313 321 338 335 337 325 322 307 323 285 262 254 265 260 285 286 316 306 296 281 289 284 284 296 327 336 337 355 20 34 5 1 347 0 350 355 354 349 342 343 339 346 346 342 342
307 280 319 320 97 51 352 349 347 26 27 320 9 13 327 289 331 326 324 321 318 333 327 122 156 86 135 150 77 72 72 60 25 12 3 353 339 330 334 319 338 322 306 318 327 307 328 319 319 325 307 272 272 266 253 253 248 246 274 284 291 293 281 286 276 256 284 318 337 335 339 343 358 348 348 343 358 351 343 341 337 345 344 342 340 334
104 291 331 356 354 9 343 6 32 52 37 355 19 328 276 238 357 25 314 318 323 311 311 6 334 190 214 265 116 50 47 39 355 5 302 329 309 326 320 286 293 289 267 261 256 259 262 272 293 314 315 300 285 265 253 251 245 239 237 249 249 268 280 278 273 272 273 263 273 302 314 319 324 334 310 308 319 324 340 333 337 343 342 341 334 331
89 333 334 53 5 335 338 26 13 80 51 62 345 289 3 340 359 356 311 326 322 309 314 334 326 310 119 267 11 342 18 337 334 327 318 315 316 291 295 273 270 279 267 281 276 284 294 301 312 309 322 311 305 289 261 258 252 257 261 262 237 255 259 253 256 266 266 248 249 239 255 272 286 303 309 290 273 311 327 315 331 344 334 331 332 332
354 161 300 348 22 325 334 358 353 339 4 43 17 18 351 267 332 349 315 288 324 303 329 305 314 291 143 216 307 308 345 320 316 315 313 293 301 293 285 284 282 298 294 301 298 312 317 313 313 308 309 313 312 312 288 264 272 273 284 296 275 283 280 286 284 275 257 257 243 249 244 245 246 252 268 285 320 333 322 297 310 324 327 325 332 323
305 79 260 300 334 341 360 359 355 11 1 358 4 353 359 27 324 295 287 87 297 309 296 301 303 284 219 164 241 270 289 284 283 288 285 281 281 278 280 286 294 306 316 317 319 323 329 330 326 319 307 305 307 313 318 303 300 306 313 297 291 283 289 283 276 272 263 263 254 254 249 250 244 244 245 253 278 278 292 294 285 292 300 322 318 319
36 357 229 306 337 350 323 316 50 26 31 359 329 302 287 359 358 9 317 90 18 311 302 311 291 301 229 135 273 225 254 257 265 267 274 273 274 275 279 285 293 315 322 321 323 324 328 327 323 317 309 311 323 326 336 322 316 309 311 287 280 289 293 297 294 282 268 255 248 252 259 258 246 238 232 232 257 267 263 267 290 299 316 320 307 310
121 239 358 316 304 294 295 301 4 39 19 334 305 272 272 153 84 20 312 316 307 250 274 272 311 271 196 251 250 231 249 249 262 263 270 277 285 301 307 310 323 330 334 336 335 332 328 328 329 330 326 329 322 316 314 314 312 301 295 295 289 278 276 269 265 270 271 270 267 260 257 253 245 240 235 247 247 249 241 236 263 297 316 316 312 293
55 93 347 286 285 268 270 281 14 55 360 329 3 58 61 35 155 214 237 275 260 307 8 337 268 258 250 227 231 248 256 267 284 280 290 306 320 326 327 329 333 338 337 334 332 328 328 340 345 343 335 327 319 309 307 298 293 292 293 294 295 284 282 284 282 279 274 272 271 261 257 258 263 255 249 256 258 245 223 225 246 262 281 291 298 304
54 308 27 299 324 324 328 348 321 336 6 344 331 47 90 46 28 250 185 33 9 227 171 317 286 283 248 235 257 290 312 325 319 308 309 317 322 323 327 332 334 332 329 329 328 328 340 342 341 336 332 328 324 321 322 328 328 325 316 312 302 292 285 283 288 290 286 285 286 288 286 283 274 268 266 261 257 246 231 229 247 261 269 272 275 278
97 262 54 17 343 337 335 334 329 329 332 313 13 7 352 71 359 27 0 315 269 278 330 252 267 278 274 331 316 310 314 316 322 316 315 312 314 324 329 328 328 326 326 324 324 333 337 335 334 334 330 327 326 333 348 346 341 338 336 333 326 316 309 306 308 304 302 306 307 302 297 289 288 283 273 274 266 248 239 247 257 263 262 258 264 265
125 319 69 81 161 257 265 274 289 298 305 307 288 161 281 322 25 59 161 211 236 282 286 264 256 288 305 317 314 314 320 318 328 331 326 326 325 325 325 325 325 326 324 322 323 330 331 335 333 327 325 325 337 349 343 342 337 337 334 332 332 329 324 317 313 305 305 297 292 287 282 283 285 291 304 300 281 268 267 265 261 256 253 249 253 258
69 41 241 25 267 266 274 281 285 292 289 302 315 295 267 239 209 145 184 249 218 357 283 284 289 306 298 308 310 316 320 326 329 326 325 326 326 324 325 325 325 323 319 317 326 333 333 329 329 327 324 327 337 337 338 336 332 332 328 324 322 320 315 310 306 301 295 290 283 276 273 280 301 311 307 304 294 276 268 270 269 261 254 243 242 245
114 346 251 2 304 287 282 280 283 287 299 309 269 223 251 262 351 296 252 247 170 187 259 292 312 299 298 302 306 307 327 327 323 325 323 319 319 323 324 324 321 317 316 327 335 334 331 329 326 323 322 320 330 335 336 331 327 323 320 318 317 315 313 309 305 299 293 285 276 274 289 310 310 308 305 301 295 292 288 282 273 266 257 241 231 235
77 212 308 323 294 298 293 288 290 314 310 303 284 255 247 283 247 217 247 263 249 260 277 293 294 287 291 295 296 313 329 323 320 319 318 322 322 321 320 317 315 314 324 334 331 331 327 324 322 318 316 318 326 330 326 323 320 317 318 321 324 325 323 326 323 319 313 311 314 326 323 314 309 304 299 297 295 293 292 286 278 265 248 232 224 235
92 301 347 321 321 298 285 283 289 311 302 300 283 210 302 275 269 244 230 268 294 289 287 294 296 292 288 273 300 316 317 319 317 320 319 318 319 320 318 316 314 325 333 331 333 330 328 325 320 315 312 313 320 319 316 312 310 312 317 319 322 319 319 321 316 316 319 314 312 309 307 307 303 300 298 297 296 295 290 285 278 261 231 218 223 240
66 279 6 33 347 298 297 328 314 311 304 287 290 283 302 324 327 308 302 261 286 290 292 292 290 289 301 323 312 317 321 321 315 311 313 315 317 314 311 308 317 329 330 331 332 334 328 321 317 314 311 315 317 315 314 312 310 313 309 313 311 309 308 310 312 315 315 314 311 307 306 307 308 308 305 301 296 291 287 282 272 252 225 238 270 275
125 18 350 340 343 267 302 323 321 314 323 337 288 241 242 273 267 282 273 290 284 292 293 291 277 284 307 320 324 322 321 314 311 314 313 319 317 313 306 313 333 325 328 335 334 328 324 321 319 315 316 320 319 315 311 308 306 306 311 311 309 305 305 308 312 314 311 309 306 306 312 314 309 304 301 299 296 292 286 279 244 265 264 266 260 273
113 123 240 176 218 277 303 322 313 338 356 308 224 114 137 225 283 291 294 285 276 263 256 260 275 302 318 321 316 313 315 312 311 307 311 312 311 301 308 333 326 330 332 330 326 322 319 315 313 320 325 320 316 314 310 307 304 308 312 308 308 314 316 315 310 306 302 300 303 311 310 305 299 296 300 308 312 316 318 306 284 265 260 266 269 270
154 173 215 178 232 285 318 352 343 10 300 229 138 175 168 340 345 307 286 279 274 263 268 277 288 305 302 308 304 305 310 309 307 310 313 314 303 308 334 327 332 329 325 324 322 320 319 325 331 324 318 317 315 314 316 319 317 311 313 322 321 316 310 306 303 302 305 311 312 309 301 295 299 308 307 303 302 303 300 294 285 276 267 266 268 272
191 164 122 353 228 313 22 30 353 275 292 175 189 174 237 195 221 332 313 305 302 286 275 273 281 291 296 301 314 316 308 306 306 303 306 305 304 349 333 328 325 324 322 321 319 320 329 327 321 319 317 316 319 327 329 321 321 321 320 319 310 307 303 304 306 312 315 311 307 299 300 311 310 304 303 301 299 299 303 303 296 290 290 279 272 269
151 120 89 321 142 227 270 212 228 282 304 138 303 294 107 14 302 296 297 300 301 277 177 286 282 292 308 313 306 305 310 310 301 300 301 304 323 338 328 322 320 320 322 318 320 322 325 323 321 320 317 323 333 329 324 325 325 319 314 313 309 306 308 312 314 312 309 303 299 305 313 310 305 301 296 299 308 311 308 306 299 288 284 288 289 289
181 83 206 105 274 137 253 304 326 348 315 275 230 232 135 304 263 268 254 291 292 228 266 327 322 318 310 310 313 316 321 310 304 309 326 333 340 323 320 317 319 318 317 316 324 327 325 324 320 317 329 329 324 325 326 323 319 315 310 308 308 314 317 315 310 307 302 300 307 307 305 305 307 310 315 314 307 301 298 296 294 292 291 287 291 287
32 100 140 141 237 21 346 248 224 218 252 214 227 218 210 250 270 306 316 291 244 164 288 329 309 309 311 313 319 335 326 309 302 310 333 339 327 328 322 320 318 316 316 326 332 327 326 321 318 324 327 324 323 323 321 317 315 310 306 311 319 320 314 310 306 303 305 306 303 306 317 318 316 312 308 305 301 300 296 293 291 292 292 286 284 283
76 355 58 3 252 217 219 260 277 228 254 257 231 248 237 248 325 46 320 281 212 252 321 322 312 311 312 315 320 318 312 299 307 312 330 327 325 323 322 320 319 319 326 331 326 323 318 314 318 321 324 322 317 319 316 315 308 307 318 319 315 313 309 304 302 304 301 306 325 324 314 312 313 311 309 306 304 301 297 300 300 298 297 294 291 290
355 332 132 213 193 222 220 265 280 289 273 214 228 244 278 275 260 269 261 287 324 320 320 318 309 309 309 312 318 301 295 287 296 308 316 319 319 318 317 314 311 322 329 328 324 326 319 314 317 320 323 320 317 317 316 309 311 320 319 316 314 307 303 301 300 301 319 329 319 318 317 315 313 310 306 302 301 302 300 299 296 296 293 291 288 283
323 177 256 89 212 231 217 210 241 243 236 201 219 203 253 47 342 275 272 284 306 308 310 311 305 304 306 296 297 290 296 300 299 304 309 314 315 315 312 310 313 322 319 320 323 324 316 311 320 321 317 317 317 318 311 315 325 320 319 315 307 303 301 300 303 324 326 318 320 316 314 313 310 307 303 302 302 301 298 294 290 287 288 284 283 282
208 111 252 247 257 105 102 253 333 324 280 158 229 334 88 91 262 270 298 298 298 300 305 302 291 293 297 297 295 295 298 301 302 303 306 310 315 314 312 310 316 319 323 326 327 321 315 319 321 319 317 317 318 313 310 326 323 320 314 309 305 305 301 301 321 321 317 315 312 311 308 308 309 307 305 300 298 295 294 293 291 288 284 282 280 280
204 133 268 268 158 203 226 198 213 217 206 210 28 261 221 210 259 280 301 303 306 301 296 296 290 290 295 296 301 301 299 300 303 306 308 312 314 312 307 304 310 315 317 320 318 312 320 319 317 315 316 316 316 311 315 324 319 315 311 306 307 303 303 313 316 315 315 312 307 304 304 306 306 303 298 295 293 293 295 298 296 293 288 282 281 284
194 180 180 206 226 149 217 228 246 244 249 249 216 263 258 252 246 275 288 293 299 296 296 294 301 304 303 302 300 300 299 298 298 305 309 311 312 311 308 309 313 316 320 321 318 315 319 317 316 314 312 313 312 310 315 320 314 311 307 307 309 303 306 313 313 317 315 310 305 302 303 304 303 299 295 293 295 302 306 303 303 300 302 303 300 291
234 194 153 86 251 268 268 251 270 284 278 276 247 224 256 276 278 286 288 286 278 285 293 292 301 306 307 304 299 297 291 297 304 308 310 310 310 306 304 306 309 312 315 316 312 313 314 315 313 311 308 311 311 309 315 314 312 307 305 305 304 302 304 314 316 317 316 312 309 306 305 304 302 297 292 297 304 304 301 300 302 300 297 291 288 300
232 163 140 197 249 41 278 198 232 251 263 272 274 269 243 228 265 277 275 273 286 295 294 292 296 302 306 304 293 290 297 305 304 305 308 310 307 303 305 307 312 317 318 317 313 315 317 318 315 310 309 310 312 310 311 310 307 302 300 305 304 303 314 315 317 316 316 316 314 310 305 303 301 303 303 306 303 298 295 295 297 298 300 298 298 296
313 160 171 234 225 190 253 260 242 229 243 267 271 281 285 285 275 257 260 280 286 285 277 281 300 305 308 300 301 305 302 305 307 309 310 308 303 301 307 312 314 316 317 312 309 315 315 316 313 307 309 310 309 309 307 308 310 306 301 302 310 319 317 317 320 319 317 315 313 309 307 302 306 307 304 303 301 303 302 298 291 291 291 293 296 293
174 119 237 176 204 254 281 280 271 279 246 239 252 260 257 259 269 279 286 288 290 293 295 289 279 295 301 304 316 311 309 308 308 308 307 303 302 308 311 313 315 316 314 313 312 316 316 318 313 306 306 309 307 303 307 311 309 305 303 310 320 321 322 320 321 318 313 311 310 309 310 306 302 301 301 299 302 299 294 292 289 288 289 283 270 273
100 231 197 60 289 270 242 267 307 316 300 284 230 225 240 244 255 281 294 301 305 304 304 307 307 304 302 311 313 313 307 306 308 310 302 301 307 313 315 316 316 314 310 308 309 313 317 316 310 306 309 308 304 302 310 314 309 302 303 312 319 326 327 327 321 316 314 313 310 308 307 305 302 302 301 303 303 303 298 287 296 298 299 301 305 307
188 216 149 207 198 257 258 248 204 224 262 265 276 280 272 273 285 297 300 301 304 306 312 310 308 316 316 309 306 303 307 309 307 305 304 313 311 313 316 316 313 312 310 312 314 317 318 315 309 308 307 307 303 305 313 312 307 301 310 313 319 329 329 331 323 317 314 315 310 310 312 308 307 309 305 300 298 298 301 305 301 303 306 305 307 309